sat.trackr.live / text

‹ back to catalog

IRIDE-MS2-HEO-12

NORAD 68984 · 2026-100E

PAYLOAD ACTIVE UNKNOWN

§ Identity

Operator
Country
IT
Launch date
2026-05-03
Launch site
AFWTR
Launch vehicle
Mass (kg)
RCS (m²)

External: N2YO · Heavens-Above · Gunter

§ Orbital elements

Epoch: 2026-05-25T03:24:50.825952Z

Period
96.57 min
Inclination
97.7366°
Eccentricity
0.0003056
Mean motion
14.91098390 rev/d
Perigee alt
592.4 km
Apogee alt
596.6 km
Semi-major
6,972.6 km
B*
1.3981e-4
RAAN
43.0036°
Arg perigee
214.3280°
Mean anomaly
145.7742°
Rev number
326

§ Raw data

IRIDE-MS2-HEO-121 68984U 26100E   26145.14225493  .00001330  00000+0  13981-3 0  99932 68984  97.7366  43.0036 0003056 214.3280 145.7742 14.91098390  3260

JSON: /api/v1/satellites/68984 · /tle

For live sub-satellite position, see the globe view (requires WebGL).

§ Visibility from observer

Set your observer location to see the next 7 days of passes ≥ 10°. The values pass through the URL so the page stays shareable.

No JS? Fill the form by hand. The geolocation button needs JavaScript.